Weather in Aleksandro-Nevskoye

Russia / Republic of Dagestan     43°55′15″N   46°33′23″E
В апреле 2022 года жителям России запретили посещать сайт meteo.paraplan.net по решению Генеральной прокуратуры. Аудитория сайта уменьшилась в 10 раз. Владельцы сайта не видят смысла в поддержке погодного сервера в таких условиях. Сайт будет закрыт в октябре.
temp.,
°C
wind,
m/s
gust,
m/s
humid.,
%
clouds,
%
prec.,
mm/h
press.,
hPa
HPBL,
m
30 september, fri
fri3000:00+21nne115111 0.0 101611
03:00+19ne116196 0.0 101711
06:00+20sse116452 0.0 101811
09:00+25e11485 0.0 1019608
12:00+29ne33350 0.0 10181901
15:00+29ene753359 0.0 10171694
18:00+23e59510 0.0 1020218
21:00+19ese35700 0.0 102087
1 october, sat
sat100:00+18ese34770 0.0 102059
03:00+18se33822 0.0 102044
06:00+17ese228476 0.0 102118
09:00+24ese33442 0.0 1022601
12:00+29e33232 0.0 10201721
15:00+30e43215 0.0 10192413
18:00+23ese59335 0.0 1020191
21:00+18se36744 0.0 102093
2 october, sun
sun200:00+17ese35848 0.0 101981
03:00+17ese368025 0.0 1018109
06:00+16ese35885 0.0 101883
09:00+24ese56458 0.0 1016615
12:00+29ese7730100 0.0 10131377
15:00+26ese91138100 0.0 1012962
18:00+21ese91763100 0.0 1011648
21:00+20ese10196699 0.0 1009659
3 october, mon
mon300:00+20se111960100 0.0 1007718
03:00+20se111862100 0.0 1006721
06:00+20se111960100 0.0 1006782
09:00+23se121655100 0.0 1006981
12:00+24se121447100 0.0 10071178
15:00+24se10114952 0.0 10081167
18:00+19ese8136565 0.0 1010587
21:00+19se6126994 0.0 1012438
4 october, tue
tue400:00+17se36815 0.0 1012158
03:00+16wnw228810 0.0 101325
06:00+15w478418 0.0 1015148
09:00+21wnw5560100 0.0 1016796
12:00+22wnw5555100 0.0 10171065
15:00+21wnw6559100 0.0 1018992
18:00+17nw6870100 0.1 1022553
21:00+16wnw4569100 0.1 1022604